{"data":{"norad_id":47993,"epoch":"2026-05-25T02:44:37.948704Z","epoch_age_seconds":61577,"freshness":"FRESH","line1":"1 47993U 21024S   26145.11432811  .00066294  00000+0  13247-2 0  9995","line2":"2 47993  53.1525 295.5948 0002322 255.9220 104.1529 15.46216566286900","mean_motion":15.46216566,"eccentricity":0.0002322,"inclination_deg":53.1525,"raan_deg":295.5948,"arg_perigee_deg":255.922,"mean_anomaly_deg":104.1529,"bstar":0.0013247,"rev_number":28690,"period_min":93.130550510477,"perigee_km":426.2254378021,"apogee_km":429.38611762807,"semimajor_km":6805.9427777151,"source":"CELESTRAK","updated_at":"2026-05-25T13:38:16.638742Z"}}